Location: Newark
(54.0919°N, 2.6681°W)
Time: 09:08:34
(UTC+00:00)

Envisat - Visible Passes

Search period start: 18 September 2019 00:00
Search period end: 28 September 2019 00:00
Orbit: 764 x 766 km, 98.1° (Epoch: 18 September)

Date Brightness Start Highest point End Pass type
(mag) Time Alt. Az. Time Alt. Az. Time Alt. Az.
18 Sep 5.0 19:01:49 10° SSW 19:06:24 33° W 19:11:01 10° NNW visible
19 Sep 6.3 20:07:57 10° W 20:09:31 11° W 20:11:05 10° WNW visible
20 Sep 5.7 19:28:18 10° SW 19:32:11 22° W 19:36:06 10° NW visible
21 Sep 4.6 18:50:17 10° SSW 18:55:04 40° W 18:59:52 10° NNW visible
22 Sep 6.1 19:55:28 10° WSW 19:58:04 14° W 20:00:40 10° NW visible
23 Sep 5.4 19:16:34 10° SSW 19:20:48 26° W 19:25:04 10° NW visible
24 Sep 4.2 18:38:49 10° S 18:43:44 48° W 18:48:41 10° NNW visible
25 Sep 5.9 19:43:24 10° SW 19:46:38 17° W 19:49:54 10° NW visible
26 Sep 5.1 19:04:57 10° SSW 19:09:26 31° W 19:13:58 10° NNW visible
27 Sep 3.8 18:27:25 10° S 18:32:26 59° W 18:37:29 10° NNW visible
27 Sep 6.4 20:11:47 10° W 20:12:35 10° W 20:13:23 10° WNW visible
